Wind_Speed
4 3 3 2 1 2 3 4 5 7 8 10 11 12 14 15 16 17 18 20 20 21 22 23 24 24 24 24 25 25 25 25 25 25 24 23 23 22 20 17 15 14 12 10
4 3 2 2 1 1 2 4 5 6 8 9 11 12 13 14 16 17 18 19 20 21 21 22 23 24 24 25 25 25 25 25 25 25 25 25 24 23 22 20 18 16 15 13
3 3 2 1 0 1 2 4 5 6 8 9 10 11 12 14 15 16 17 18 19 20 21 21 22 23 24 24 24 24 25 25 25 25 25 25 25 24 23 22 20 18 17 15
3 3 2 1 1 2 3 4 6 7 8 9 11 12 12 13 14 15 16 17 18 18 19 20 21 22 23 23 24 24 24 25 25 25 25 25 25 25 24 24 23 22 21 20
4 3 3 3 3 4 5 6 7 8 9 10 11 12 13 13 14 14 15 16 16 17 18 19 19 20 21 22 23 23 24 24 24 24 24 25 24 24 24 23 23 22 21 20
6 6 6 6 6 6 7 8 8 9 10 10 11 12 12 13 14 14 15 15 15 16 17 17 18 19 20 21 21 22 22 23 24 23 23 24 24 24 24 23 22 22 21 20
8 8 8 8 8 8 9 9 10 10 11 11 11 12 12 13 13 14 14 15 15 15 16 17 17 18 18 19 20 20 21 21 22 23 23 23 23 23 23 23 22 22 21 20
11 12 11 11 11 11 11 11 11 12 12 12 12 13 13 13 14 14 14 15 15 16 16 16 17 17 17 18 18 19 19 20 20 21 22 22 22 22 22 22 22 21 21 20
13 13 13 13 13 13 13 13 13 14 14 14 14 14 14 14 14 15 15 15 15 16 16 16 17 17 17 17 17 18 18 18 19 19 20 21 21 21 21 21 21 21 20 19
16 15 15 15 15 15 15 16 16 16 16 16 17 17 16 16 16 16 16 16 16 16 17 17 17 17 17 17 17 17 18 18 18 18 18 19 19 19 19 20 19 19 19 18
18 18 18 18 18 18 18 19 19 19 19 19 19 19 19 19 19 19 18 18 18 18 18 18 18 18 18 18 18 18 18 18 18 17 17 17 17 18 18 18 17 17 17 17
20 20 21 21 21 21 22 22 22 22 22 22 22 22 22 22 22 22 21 21 21 21 20 20 20 19 19 19 19 19 19 18 18 17 17 17 16 16 16 16 16 15 15 15
23 23 23 23 24 24 24 24 25 25 25 25 25 25 25 25 25 25 25 24 24 23 23 23 22 22 21 21 20 20 20 19 18 18 17 17 16 16 15 15 14 14 13 13
26 26 26 26 27 27 27 27 28 28 28 28 28 28 27 27 27 28 28 27 27 27 26 26 25 25 25 23 22 22 21 21 20 19 19 18 17 16 15 15 14 13 12 12
29 30 30 30 30 30 30 31 31 31 31 31 31 31 31 31 31 31 31 31 30 30 30 29 29 28 28 27 25 25 24 23 22 22 21 20 19 18 17 15 14 13 13 12
33 33 34 34 34 34 35 35 35 35 35 35 35 35 35 35 35 35 35 34 33 33 33 33 32 32 32 30 29 28 27 26 25 24 23 22 21 20 19 18 16 15 14 13
37 37 37 38 38 39 39 39 39 39 39 39 39 39 39 39 39 39 39 38 37 37 36 36 36 36 35 34 33 32 31 30 29 27 26 25 24 23 22 21 19 18 17 15
39 40 40 41 42 42 42 43 43 43 43 43 43 43 43 43 42 42 42 41 41 40 40 40 40 39 39 38 37 36 35 34 32 31 30 29 27 26 25 24 23 21 20 18
42 43 43 44 44 45 45 46 46 46 46 46 46 46 46 45 45 45 45 45 44 43 43 44 43 42 42 41 41 40 39 37 36 35 34 33 31 30 29 28 26 25 24 22
44 45 45 46 46 46 47 47 48 48 48 48 48 48 48 48 48 48 48 48 47 47 47 47 47 46 45 45 45 44 43 42 40 39 38 37 35 34 33 31 30 29 28 26
44 44 45 45 46 46 47 47 47 48 48 49 49 49 49 50 50 50 50 49 49 50 49 49 49 49 49 49 49 47 46 45 44 43 42 41 39 38 37 35 34 33 31 30
43 43 44 45 45 46 46 46 47 47 48 48 49 49 50 50 51 51 51 51 51 51 52 52 52 52 52 52 52 52 50 50 49 48 47 46 44 43 41 40 38 37 35 34
43 43 44 44 45 45 45 46 47 47 48 49 50 51 51 52 52 53 53 54 54 54 54 54 54 54 55 55 55 55 55 54 53 52 51 50 49 48 46 44 43 41 40 38
42 43 43 43 44 45 46 46 47 48 49 50 51 52 53 53 54 55 55 55 55 56 56 56 56 56 56 57 57 58 58 58 57 57 56 55 54 53 51 50 48 46 44 43
42 42 43 43 44 44 45 46 47 48 50 51 52 53 54 54 54 55 56 57 57 57 57 57 57 58 58 59 59 59 60 60 60 60 60 59 58 57 56 55 53 51 49 47
43 43 43 44 44 45 46 47 48 49 50 51 53 54 55 56 57 58 58 59 59 59 59 59 59 59 60 60 61 61 62 62 62 62 62 62 62 61 60 59 57 56 54 52
43 44 44 45 46 46 47 48 49 50 52 53 54 55 56 57 58 59 59 60 60 60 60 60 60 61 61 61 61 61 62 63 64 64 64 64 64 64 63 62 61 60 58 57
Wind_Direction
158 153 146 128 85 37 26 21 19 18 18 16 16 15 15 15 16 16 17 19 19 20 21 22 22 23 23 23 23 23 24 24 24 24 24 23 22 22 21 20 18 14 11 5
160 155 144 124 94 48 21 11 9 10 11 12 13 14 15 15 15 14 15 17 18 19 20 21 22 23 23 24 23 23 23 24 25 25 25 25 25 24 25 25 24 22 19 18
175 175 167 144 53 1 356 356 354 355 358 360 3 6 8 9 10 11 13 14 15 16 17 19 21 22 23 23 24 23 23 24 25 25 26 26 27 27 27 27 28 28 26 23
200 209 208 230 298 326 331 335 337 343 347 350 353 357 360 2 4 6 8 10 11 12 13 15 18 19 21 22 22 23 23 24 25 25 26 27 27 28 28 28 29 30 30 30
223 236 243 256 275 295 310 320 326 331 336 339 343 347 352 354 357 359 2 4 6 7 9 10 13 15 17 18 19 21 22 22 23 24 25 26 27 27 27 26 27 29 30 32
246 255 263 269 277 286 297 303 312 317 323 328 332 336 340 344 347 350 352 356 359 1 2 4 6 9 11 13 14 16 17 19 21 22 23 24 25 26 26 26 26 26 27 30
253 258 263 271 276 281 286 296 302 307 312 316 321 326 330 333 337 340 343 346 349 351 353 356 359 1 3 6 8 10 12 15 18 19 20 21 22 24 24 25 26 26 26 28
257 261 266 272 276 279 284 289 294 299 304 309 313 318 322 325 328 331 334 337 340 342 344 347 350 352 355 358 1 4 6 9 11 14 16 17 18 20 22 23 25 26 27 29
260 265 269 271 274 277 280 284 289 293 298 303 307 311 314 316 319 322 325 328 331 333 335 338 341 344 347 350 352 356 359 1 4 6 9 11 13 16 19 20 22 25 27 28
263 267 270 271 273 275 278 281 284 287 291 295 299 302 305 307 310 313 316 318 321 324 326 329 332 335 337 340 342 345 348 352 354 357 -0 3 5 9 13 16 18 21 24 27
264 267 270 271 273 274 275 278 280 283 286 289 291 294 297 299 302 304 306 309 312 314 316 319 322 325 327 329 332 334 336 340 343 346 349 353 357 359 3 8 12 16 20 23
265 267 268 270 271 273 274 276 278 281 283 286 288 290 292 294 296 297 299 302 304 305 307 309 311 314 316 319 321 324 326 329 332 335 339 342 345 349 353 357 2 6 11 15
265 266 267 269 271 273 275 277 279 281 283 285 286 288 290 291 293 294 295 296 297 299 300 302 304 305 307 310 312 314 316 319 322 324 326 329 332 336 340 344 349 353 358 3
266 267 268 269 271 273 275 277 279 280 282 284 285 287 288 289 290 291 292 292 293 294 296 297 298 299 300 302 304 306 307 309 311 313 315 317 319 322 325 329 333 337 341 347
266 268 269 270 272 273 275 277 278 280 282 283 285 286 287 287 288 288 289 290 291 291 292 293 294 294 295 296 298 299 300 301 302 303 305 306 308 309 311 314 317 320 323 326
266 268 270 271 273 274 275 276 278 280 281 283 284 285 286 287 287 288 288 289 289 289 289 289 290 290 290 291 292 293 294 294 295 296 296 297 298 299 300 301 302 304 307 309
267 269 270 272 273 275 276 277 278 279 280 281 283 284 285 285 286 287 287 287 287 287 287 287 286 287 288 288 289 288 288 289 289 290 290 290 290 291 291 291 292 292 293 295
266 268 269 271 273 275 276 277 278 280 281 282 283 283 284 285 285 285 285 286 286 286 286 285 285 285 286 285 285 284 284 284 285 285 284 284 284 284 284 284 284 284 284 284
266 267 269 270 272 274 275 277 279 280 281 282 283 283 284 284 284 284 284 284 284 284 284 284 284 283 283 283 282 281 281 280 280 280 280 280 280 279 279 278 278 278 278 277
266 268 269 271 272 274 275 277 278 280 281 281 282 283 283 284 284 284 284 283 283 282 282 281 281 281 281 280 279 278 278 277 277 276 276 276 276 275 275 274 274 273 273 272
267 268 269 271 272 274 275 277 278 279 280 281 281 282 283 283 284 284 283 283 283 282 282 281 280 279 278 278 277 276 275 274 273 273 273 272 272 271 271 270 270 269 269 268
267 268 270 271 273 275 276 277 278 279 280 281 282 283 283 284 284 284 284 283 282 282 281 280 280 278 277 276 275 274 273 271 270 269 269 269 268 268 267 267 267 266 266 265
268 269 271 272 274 275 276 278 279 280 281 282 283 283 284 284 284 284 284 284 283 282 281 280 279 277 276 275 273 272 271 270 268 267 266 265 265 265 264 264 264 263 263 263
269 270 272 273 275 277 278 280 281 282 283 284 285 285 286 286 286 286 285 285 284 283 282 281 279 278 276 274 272 271 269 268 267 265 264 263 262 262 261 261 261 261 260 260
270 271 273 275 277 278 280 281 283 284 286 287 288 288 289 289 289 289 288 287 286 285 283 282 280 278 276 274 272 270 268 267 265 264 263 262 260 259 259 258 258 258 258 257
271 272 274 276 279 280 282 284 285 287 288 289 290 290 291 292 292 292 291 290 289 287 286 284 282 280 278 275 272 270 267 266 264 263 262 260 259 258 257 257 257 256 255 255
272 274 276 278 280 282 284 286 287 289 290 291 291 292 293 293 293 293 292 291 290 289 288 286 284 282 279 276 274 271 267 265 263 262 261 259 258 257 256 255 255 254 254 254
Height
5878 5878 5879 5879 5879 5879 5878 5877 5876 5875 5873 5872 5869 5867 5864 5861 5858 5854 5851 5847 5843 5838 5834 5829 5825 5820 5815 5810 5805 5800 5795 5790 5785 5780 5775 5770 5766 5761 5756 5753 5749 5746 5743 5741
5878 5878 5879 5879 5879 5878 5878 5877 5876 5875 5874 5872 5870 5867 5865 5862 5859 5855 5852 5848 5844 5840 5836 5831 5827 5822 5818 5813 5808 5803 5798 5793 5788 5783 5779 5774 5768 5764 5759 5755 5751 5748 5744 5742
5878 5878 5879 5879 5879 5878 5878 5877 5876 5875 5875 5872 5870 5868 5865 5862 5859 5856 5853 5849 5846 5842 5838 5834 5829 5825 5820 5816 5811 5806 5802 5797 5792 5787 5782 5777 5772 5767 5763 5758 5754 5750 5746 5743
5878 5879 5879 5881 5878 5878 5878 5877 5876 5875 5873 5872 5870 5867 5865 5863 5860 5857 5854 5850 5847 5843 5839 5835 5831 5827 5823 5818 5814 5809 5805 5800 5795 5790 5786 5781 5776 5771 5766 5762 5758 5753 5749 5745
5877 5877 5878 5879 5878 5877 5877 5876 5875 5874 5873 5871 5869 5867 5865 5862 5860 5857 5854 5851 5848 5844 5841 5837 5833 5829 5825 5821 5817 5812 5808 5803 5799 5794 5789 5784 5780 5775 5770 5766 5761 5757 5753 5749
5876 5876 5876 5878 5877 5876 5876 5875 5874 5872 5871 5870 5868 5866 5865 5862 5859 5857 5854 5851 5848 5845 5841 5838 5834 5831 5827 5823 5819 5815 5810 5806 5801 5797 5792 5788 5783 5779 5774 5770 5765 5761 5757 5753
5874 5874 5874 5875 5874 5875 5875 5875 5872 5871 5869 5868 5866 5865 5863 5860 5858 5856 5853 5851 5848 5845 5842 5838 5835 5832 5828 5824 5821 5817 5813 5808 5804 5800 5795 5791 5786 5782 5778 5773 5769 5764 5760 5756
5871 5871 5874 5872 5872 5872 5872 5870 5869 5868 5867 5865 5864 5862 5861 5859 5856 5854 5852 5849 5847 5844 5841 5838 5835 5832 5828 5825 5822 5818 5814 5810 5806 5802 5798 5794 5789 5785 5781 5776 5772 5768 5764 5760
5869 5870 5869 5868 5868 5868 5868 5867 5866 5865 5864 5863 5861 5860 5858 5856 5854 5852 5850 5848 5845 5843 5840 5837 5835 5831 5828 5825 5822 5819 5815 5811 5808 5804 5800 5796 5792 5788 5784 5780 5776 5772 5768 5764
5864 5864 5865 5864 5864 5864 5864 5863 5862 5861 5860 5859 5858 5856 5855 5853 5851 5849 5847 5845 5843 5841 5838 5836 5833 5830 5827 5824 5821 5818 5815 5812 5808 5805 5801 5798 5794 5790 5786 5783 5779 5775 5771 5768
5859 5860 5860 5860 5860 5859 5859 5858 5857 5856 5856 5855 5854 5852 5851 5849 5848 5846 5844 5842 5840 5838 5836 5833 5831 5828 5825 5823 5820 5817 5814 5811 5808 5805 5802 5798 5795 5792 5788 5785 5781 5778 5774 5771
5854 5855 5855 5854 5854 5854 5853 5853 5852 5851 5850 5849 5848 5847 5846 5844 5843 5841 5839 5838 5836 5834 5832 5830 5827 5825 5823 5820 5818 5815 5812 5810 5807 5804 5801 5798 5795 5792 5789 5786 5783 5779 5776 5773
5848 5848 5848 5848 5848 5847 5847 5846 5846 5845 5844 5843 5842 5841 5840 5838 5837 5835 5834 5832 5831 5829 5827 5825 5823 5821 5819 5817 5814 5812 5810 5807 5805 5802 5800 5797 5794 5792 5789 5786 5783 5780 5777 5774
5840 5841 5841 5841 5841 5840 5840 5839 5839 5838 5837 5837 5836 5835 5833 5832 5831 5829 5827 5826 5824 5823 5821 5819 5817 5815 5813 5812 5810 5808 5806 5804 5801 5799 5797 5795 5792 5790 5788 5785 5783 5780 5777 5775
5833 5833 5833 5833 5833 5833 5832 5832 5831 5830 5830 5829 5828 5827 5826 5825 5823 5822 5820 5819 5817 5816 5814 5812 5811 5809 5807 5806 5804 5802 5801 5799 5797 5795 5793 5791 5789 5787 5785 5783 5781 5779 5776 5774
5824 5824 5824 5824 5824 5824 5823 5823 5822 5822 5821 5820 5819 5818 5817 5816 5814 5813 5812 5810 5809 5808 5806 5804 5803 5801 5799 5798 5797 5796 5794 5793 5791 5790 5788 5787 5785 5783 5781 5780 5778 5776 5774 5772
5814 5814 5814 5814 5813 5813 5813 5812 5812 5811 5811 5810 5809 5808 5807 5805 5804 5803 5801 5800 5799 5798 5796 5794 5793 5792 5791 5790 5789 5788 5787 5785 5784 5783 5782 5780 5779 5778 5776 5775 5774 5772 5770 5769
5803 5803 5803 5802 5802 5802 5801 5801 5800 5800 5799 5798 5797 5796 5795 5794 5793 5791 5790 5789 5788 5786 5785 5783 5782 5781 5780 5779 5779 5778 5777 5777 5776 5775 5774 5773 5772 5771 5770 5769 5768 5767 5765 5764
5791 5791 5791 5791 5790 5790 5789 5788 5787 5787 5786 5785 5784 5783 5782 5781 5780 5779 5777 5776 5775 5774 5773 5771 5770 5769 5769 5767 5767 5766 5766 5766 5765 5765 5764 5764 5763 5762 5761 5761 5760 5760 5759 5758
5778 5778 5778 5778 5778 5777 5777 5776 5775 5774 5773 5771 5770 5769 5768 5767 5766 5765 5763 5762 5761 5760 5759 5757 5756 5756 5755 5754 5753 5753 5753 5753 5753 5753 5753 5753 5752 5752 5752 5751 5751 5751 5751 5750
5765 5765 5765 5765 5764 5764 5763 5762 5761 5760 5759 5758 5756 5755 5754 5752 5751 5750 5748 5747 5745 5744 5743 5742 5741 5740 5739 5738 5738 5738 5738 5739 5739 5739 5739 5740 5740 5740 5740 5740 5740 5740 5741 5741
5752 5752 5752 5752 5751 5750 5750 5749 5748 5746 5745 5744 5742 5741 5739 5737 5736 5734 5732 5731 5730 5728 5726 5725 5724 5723 5722 5722 5721 5721 5722 5722 5723 5723 5724 5725 5726 5726 5727 5727 5728 5729 5729 5730
5739 5739 5739 5738 5737 5736 5736 5734 5733 5732 5731 5729 5727 5725 5724 5722 5720 5718 5716 5714 5712 5710 5708 5707 5706 5705 5704 5703 5703 5703 5703 5704 5704 5705 5706 5708 5709 5710 5712 5713 5714 5715 5716 5717
5725 5725 5725 5724 5723 5723 5721 5720 5718 5717 5715 5713 5711 5709 5707 5705 5702 5700 5698 5696 5694 5692 5689 5688 5686 5685 5684 5683 5683 5682 5683 5683 5684 5685 5687 5688 5690 5692 5694 5696 5698 5699 5701 5702
5711 5711 5711 5710 5709 5708 5707 5705 5703 5701 5699 5697 5694 5692 5689 5687 5685 5682 5679 5676 5674 5671 5669 5667 5665 5664 5663 5662 5661 5660 5661 5661 5662 5664 5665 5667 5670 5672 5674 5677 5679 5681 5684 5686
5697 5696 5696 5695 5694 5693 5692 5690 5688 5685 5683 5680 5677 5674 5671 5668 5665 5662 5659 5656 5653 5650 5648 5646 5644 5642 5640 5639 5638 5637 5637 5638 5639 5640 5642 5644 5647 5650 5653 5656 5659 5662 5664 5667
5682 5682 5681 5680 5679 5678 5676 5674 5672 5669 5666 5663 5660 5657 5653 5650 5646 5642 5639 5635 5632 5629 5626 5623 5621 5618 5616 5615 5613 5613 5613 5613 5614 5616 5618 5620 5623 5626 5630 5633 5637 5640 5643 5647